Wetbulb
18.72 19.09 19.83 20.58 20.72 20.44 20.24 20.34 21.05 21.25 21.11 20.67 20.65 20.82 21.14 21.28 21.19 21.45 21.79 22.03 21.97 21.99 22.11 22.39 22.72 23.10 23.50 23.89 24.01 23.76 23.49 23.28 23.30 23.80 24.41 24.65 24.22 24.20 24.34 24.39 24.45 24.37 24.22 24.19 24.15 24.01 23.89 23.86 23.64 23.43 23.32 23.36 23.28 23.24 23.23 23.33 23.13 22.85 22.58 22.28 22.10 22.06 22.12 22.00 22.14 22.43 22.87 23.32 23.63
18.70 19.22 20.16 21.08 21.19 20.76 20.39 20.58 20.89 21.14 21.26 21.23 21.38 21.60 21.72 21.72 21.55 21.65 21.83 22.05 22.20 22.30 22.38 22.58 23.03 23.28 23.42 23.86 23.99 23.72 23.26 22.99 23.24 23.76 24.28 24.49 24.44 24.63 24.80 24.93 25.14 25.37 25.41 25.18 24.79 24.33 23.94 23.95 23.66 23.36 23.27 23.38 23.24 23.07 23.16 23.66 23.58 22.96 22.33 22.09 22.07 22.24 22.36 22.32 22.57 22.92 23.30 23.57 24.20
18.81 19.20 19.84 20.46 20.36 20.17 20.09 20.14 20.48 20.77 21.16 21.49 21.78 21.95 22.03 22.02 21.88 21.83 21.93 22.14 22.51 22.55 22.53 22.42 22.92 23.30 23.64 23.80 23.74 23.51 23.30 23.16 23.57 23.94 24.28 24.43 24.69 24.95 25.21 25.64 26.10 26.67 27.00 26.72 25.79 25.01 24.39 24.14 23.90 23.70 23.51 23.27 23.25 23.13 23.15 23.63 23.63 23.05 22.36 22.13 22.40 22.52 22.58 22.64 23.01 23.41 23.75 23.97 24.39
18.77 19.01 19.47 20.17 20.07 20.11 20.23 20.37 20.66 20.97 21.30 21.57 21.96 22.13 22.25 22.22 22.16 22.10 22.19 22.41 22.45 22.43 22.38 22.49 22.89 23.45 23.78 23.70 23.45 23.37 23.57 24.02 24.38 24.43 24.57 24.68 24.92 25.23 25.75 26.62 27.03 27.11 27.02 26.95 26.34 25.58 24.88 24.37 24.04 23.86 23.66 23.51 23.36 23.23 23.18 23.43 23.48 23.10 22.69 22.62 22.84 22.80 22.77 22.91 23.24 23.61 23.83 24.03 24.21
18.97 19.30 19.81 20.19 20.30 20.63 20.91 21.25 21.19 21.26 21.41 21.76 21.84 21.96 22.03 22.18 22.12 22.11 22.11 22.05 22.00 22.18 22.54 23.01 23.26 23.61 23.80 23.59 23.26 23.34 23.62 24.13 25.06 24.86 24.46 24.76 25.08 25.60 26.44 27.73 27.39 26.94 26.62 26.46 26.32 25.82 25.17 24.52 24.25 24.02 23.87 23.84 23.55 23.40 23.41 23.62 23.26 22.95 22.85 23.02 23.24 23.23 23.14 23.18 23.49 23.66 23.76 23.70 23.87
19.06 19.57 20.12 20.59 20.91 21.21 21.47 21.68 21.51 21.51 21.52 21.76 21.71 21.65 21.58 21.61 21.68 21.66 21.53 21.44 21.88 22.46 23.12 23.86 23.90 23.88 23.70 23.20 23.20 23.35 23.66 24.09 24.30 24.41 24.55 24.82 25.27 25.96 26.95 28.37 27.50 26.84 26.42 26.01 25.92 25.71 25.29 24.73 24.25 24.15 24.12 24.07 23.78 23.81 23.93 23.70 23.23 22.95 22.87 22.93 23.23 23.40 23.32 23.20 23.24 23.40 23.43 23.27 23.37
19.37 19.69 20.11 20.69 21.18 21.39 21.48 21.55 21.58 21.60 21.74 21.88 21.73 21.47 21.19 21.14 21.35 21.51 21.65 21.75 22.15 22.66 23.22 23.77 23.47 23.20 22.89 22.81 22.98 23.30 23.59 23.87 24.11 24.35 24.57 24.90 25.38 26.09 27.19 28.64 27.79 27.17 26.70 26.23 25.92 25.48 25.07 24.73 24.08 23.99 24.14 24.41 24.17 24.10 24.14 24.10 23.52 23.14 22.77 22.59 22.95 23.18 23.24 23.19 23.41 23.41 23.28 23.06 23.21
19.84 20.11 20.41 20.97 21.27 21.34 21.35 21.27 21.35 21.47 21.58 21.72 21.53 21.31 21.10 21.23 21.56 21.71 21.79 21.92 22.15 22.58 22.91 23.06 22.75 22.66 22.65 22.75 22.95 23.14 23.48 23.66 23.86 24.18 24.52 24.92 25.39 26.18 27.26 28.65 27.99 27.51 27.06 26.56 26.14 25.60 25.14 24.81 24.30 23.99 23.85 23.93 23.76 23.87 24.00 24.11 23.71 23.21 22.76 22.45 22.76 23.13 23.46 23.62 23.86 23.74 23.45 23.42 23.41
20.18 20.47 20.91 21.30 21.35 21.35 21.32 21.32 21.38 21.43 21.45 21.46 21.42 21.28 21.35 21.82 21.96 21.77 21.66 21.76 22.38 22.71 22.83 22.56 22.70 22.83 22.91 22.98 23.05 23.19 23.38 23.47 23.59 23.89 24.20 24.73 25.33 26.12 27.07 28.49 27.77 27.42 27.25 26.90 26.50 25.97 25.44 25.04 24.57 24.20 24.03 24.02 23.86 23.94 24.06 24.09 23.63 23.19 22.84 22.53 22.71 22.97 23.28 23.67 23.80 23.75 23.62 23.62 23.60
20.17 20.56 20.97 21.24 21.24 21.33 21.48 21.40 21.58 21.66 21.59 21.47 21.49 21.55 21.88 22.74 22.32 21.90 21.79 22.18 22.63 22.61 22.46 22.42 22.66 22.81 22.89 23.01 23.05 23.20 23.35 23.48 23.50 23.70 24.04 24.54 25.27 25.93 26.85 28.16 27.60 27.12 26.91 26.96 26.71 26.31 25.82 25.19 24.74 24.40 24.18 24.15 23.93 23.99 24.11 24.07 23.63 23.22 22.95 22.80 23.09 23.23 23.45 23.77 23.96 23.99 23.97 24.04 24.08
20.24 20.80 21.13 21.19 21.10 21.32 21.50 21.20 21.46 21.64 21.66 21.47 21.47 21.55 21.80 22.18 21.90 21.96 22.30 22.73 22.32 22.15 22.17 22.57 22.73 22.71 22.73 22.91 23.00 23.22 23.43 23.45 23.35 23.52 23.80 24.24 24.88 25.45 26.26 27.80 27.74 27.06 26.46 26.54 26.56 26.37 26.06 25.45 25.08 24.76 24.63 24.55 24.56 24.56 24.52 24.40 23.99 23.65 23.42 23.47 23.69 23.74 23.81 24.03 24.46 24.59 24.60 24.66 24.69
20.62 21.07 21.34 21.31 21.14 21.14 21.14 20.92 21.10 21.32 21.44 21.36 21.36 21.44 21.51 21.60 21.77 22.24 22.55 22.45 21.96 21.95 22.30 22.79 22.83 22.79 22.79 22.88 23.04 23.30 23.42 23.29 23.20 23.30 23.60 23.94 24.29 24.88 25.78 27.07 27.85 27.18 26.28 26.14 26.17 26.01 25.75 25.44 25.17 25.06 24.98 24.92 24.95 25.00 25.03 25.01 24.70 24.38 24.16 24.26 24.37 24.31 24.38 24.67 25.14 25.41 25.61 25.71 25.74
21.03 21.25 21.31 21.23 21.04 20.94 20.83 20.73 20.85 21.10 21.24 21.18 21.24 21.33 21.49 21.63 22.12 22.42 22.45 21.98 21.86 22.00 22.34 22.83 23.03 23.05 22.95 22.92 23.06 23.08 23.08 23.04 23.04 23.10 23.31 23.69 24.07 24.59 25.26 26.03 27.54 27.28 26.34 25.72 25.82 25.58 25.24 24.95 24.75 24.70 24.66 24.77 24.96 25.14 25.43 25.47 25.20 24.85 24.64 24.56 24.65 24.65 24.68 24.88 25.29 25.76 26.14 26.49 26.50
21.23 21.20 21.17 21.04 20.81 20.77 20.61 20.55 20.73 21.00 21.18 21.14 21.24 21.27 21.44 21.58 22.22 22.43 22.40 21.92 21.88 22.04 22.32 22.62 22.95 23.13 23.15 23.20 23.15 23.09 22.99 22.99 22.88 22.87 22.92 23.30 23.62 24.14 24.69 25.13 26.84 27.25 26.72 25.44 25.48 25.22 24.79 24.35 24.19 24.03 24.03 24.09 24.34 24.75 25.08 25.24 25.06 24.84 24.62 24.26 24.09 24.15 24.31 24.54 24.83 25.11 25.41 25.75 25.71
21.06 21.01 20.98 20.81 20.61 20.47 20.41 20.33 20.69 20.96 21.10 21.06 21.16 21.23 21.31 21.45 22.04 22.36 22.36 22.00 21.98 22.22 22.36 22.30 22.48 22.88 23.26 23.49 23.33 23.17 23.07 22.91 22.82 22.67 22.65 22.83 23.08 23.55 24.05 24.55 25.80 26.76 26.68 25.18 25.04 24.71 24.36 23.97 23.70 23.57 23.41 23.33 23.54 23.87 24.12 24.33 24.30 24.29 24.14 23.85 23.53 23.47 23.56 23.89 23.92 24.05 24.29 24.52 24.41
20.54 20.66 20.65 20.49 20.22 20.12 20.18 20.24 20.63 20.89 21.06 20.90 21.02 21.16 21.21 21.30 21.74 22.12 22.23 22.07 22.12 22.20 22.14 22.03 22.09 22.43 22.89 23.56 23.46 23.22 23.01 22.77 22.58 22.35 22.19 22.18 22.47 22.99 23.60 24.19 24.88 25.68 25.80 24.55 24.06 23.86 23.80 23.62 23.63 23.38 23.11 22.76 22.77 22.98 23.22 23.33 23.44 23.48 23.51 23.49 23.26 23.10 23.17 23.57 23.35 23.38 23.60 24.06 24.00
19.98 20.18 20.28 20.16 19.90 19.81 19.88 20.14 20.51 20.75 20.83 20.77 20.83 20.92 21.04 21.24 21.38 21.80 22.16 22.21 21.97 21.81 21.75 21.74 22.04 22.26 22.60 23.06 23.22 23.10 22.91 22.50 22.30 22.16 21.91 21.89 22.16 22.61 23.26 23.94 24.41 24.91 24.83 23.63 22.72 22.47 22.54 22.72 23.24 23.40 23.14 22.52 22.22 22.29 22.49 22.61 22.72 22.81 22.90 23.03 22.87 22.74 22.79 23.25 22.91 22.95 23.22 23.92 24.09
19.47 19.77 19.96 19.86 19.71 19.68 19.85 20.22 20.54 20.66 20.62 20.57 20.61 20.79 21.00 21.12 21.10 21.37 21.76 22.10 21.92 21.62 21.46 21.55 21.91 22.15 22.39 22.45 22.67 22.87 22.84 22.38 22.15 22.00 21.94 21.98 22.26 22.57 23.06 23.68 23.96 24.46 24.56 23.69 21.86 21.21 21.31 21.77 22.43 22.82 22.81 22.33 21.83 21.79 21.96 22.05 22.12 22.18 22.27 22.42 22.16 22.11 22.11 22.31 22.36 22.71 23.22 23.85 24.21
19.07 19.40 19.55 19.57 19.58 19.64 19.90 20.51 20.63 20.66 20.57 20.58 20.60 20.70 20.80 20.94 21.01 21.07 21.26 21.61 21.89 21.76 21.54 21.45 21.72 22.05 22.31 22.52 22.56 22.88 23.07 22.69 22.35 22.31 22.30 22.37 22.48 22.68 23.02 23.51 23.36 23.86 24.35 24.16 21.79 20.68 20.71 21.34 21.66 21.87 21.89 21.70 21.24 21.18 21.33 21.46 21.46 21.43 21.47 21.41 21.26 21.24 21.34 21.65 22.08 22.75 23.30 23.68 24.04
18.80 19.07 19.24 19.41 19.52 19.67 19.97 20.41 20.59 20.63 20.55 20.54 20.54 20.52 20.63 20.83 21.04 21.05 20.99 21.18 21.74 21.83 21.71 21.55 21.61 21.76 22.07 22.44 22.51 22.73 22.89 22.89 22.62 22.53 22.53 22.65 22.56 22.70 22.90 23.29 23.16 23.38 23.78 23.97 22.08 21.01 20.68 21.24 21.10 21.04 20.93 20.76 20.27 20.17 20.39 20.77 20.59 20.45 20.49 20.61 20.96 21.20 21.29 21.59 22.03 22.51 22.93 23.29 23.68
18.66 18.97 19.14 19.37 19.50 19.80 20.16 20.64 20.74 20.72 20.56 20.49 20.47 20.49 20.58 20.79 20.93 20.92 21.05 21.33 21.72 21.86 21.84 21.78 21.70 21.73 21.86 22.07 22.18 22.24 22.33 22.72 22.57 22.51 22.56 22.69 22.68 22.91 23.13 23.46 23.20 23.26 23.48 23.67 22.32 21.21 20.67 20.99 20.56 20.16 19.86 19.57 19.00 19.22 19.67 20.00 19.78 19.98 20.23 20.61 21.00 21.28 21.53 21.66 21.82 21.99 22.18 22.57 23.07
18.60 18.87 19.17 19.53 19.76 20.22 20.75 21.07 20.88 20.65 20.46 20.43 20.49 20.51 20.60 20.68 20.74 20.92 21.16 21.49 21.78 21.88 21.91 21.94 21.99 21.96 22.03 22.12 21.97 21.93 22.03 22.27 22.33 22.51 22.62 22.73 22.82 23.14 23.54 23.83 23.38 23.10 23.12 23.85 22.44 21.22 20.41 20.32 19.57 18.89 18.51 18.63 17.81 18.42 19.33 19.56 19.65 19.82 20.04 20.39 20.60 20.88 21.20 21.43 21.38 21.48 21.68 22.02 22.51
18.52 18.79 19.24 19.92 20.24 20.72 21.05 20.90 20.63 20.46 20.36 20.39 20.39 20.46 20.53 20.62 20.73 20.92 21.19 21.38 21.70 21.84 21.86 22.10 22.27 22.35 22.40 22.62 22.33 21.98 21.83 21.74 21.94 22.23 22.55 22.69 22.77 23.02 23.42 23.86 23.38 22.90 23.23 25.14 24.77 23.22 21.36 20.07 18.89 18.21 17.98 18.42 17.49 18.11 18.95 19.04 19.41 19.51 19.53 19.71 20.08 20.31 20.48 20.91 20.92 21.06 21.36 21.68 22.10
18.53 18.93 19.54 20.26 20.42 20.43 20.35 20.15 20.16 20.11 20.13 20.15 20.25 20.32 20.39 20.44 20.56 20.74 20.93 21.07 21.26 21.53 21.78 22.20 22.42 22.68 22.91 23.01 22.55 22.11 21.70 21.39 21.50 21.72 22.11 22.40 22.49 22.67 22.98 23.56 23.15 22.72 23.52 27.15 28.65 27.76 25.72 23.47 21.15 19.65 18.92 18.73 18.55 18.89 19.17 18.99 19.26 19.30 19.18 19.09 19.38 19.59 19.72 20.16 20.35 20.60 20.84 21.06 21.38
18.56 19.03 19.61 19.89 19.97 19.99 19.96 19.93 19.85 19.81 19.87 20.03 20.19 20.21 20.23 20.20 20.30 20.36 20.46 20.59 20.83 21.17 21.59 22.15 22.46 22.78 23.04 22.90 22.47 22.05 21.69 21.52 21.33 21.35 21.42 21.72 22.00 22.22 22.49 22.90 22.77 22.41 23.74 29.03 31.68 31.38 29.68 27.58 24.83 22.15 20.28 19.66 19.68 19.54 19.32 19.21 19.36 19.32 19.20 18.95 19.03 19.01 19.07 19.34 19.73 20.15 20.39 20.68 20.86
18.17 18.66 19.14 19.54 19.60 19.55 19.54 19.59 19.56 19.62 19.72 19.92 20.00 19.98 19.94 19.95 20.12 20.09 20.02 20.08 20.38 20.92 21.47 22.14 22.41 22.87 23.09 22.41 21.99 21.70 21.43 21.37 21.30 21.21 21.12 21.13 21.37 21.64 21.92 22.41 22.44 22.07 23.42 28.78 32.70 32.77 31.35 30.30 28.17 25.24 22.31 20.31 20.06 19.75 19.53 19.53 19.51 19.53 19.57 19.30 19.20 18.84 18.55 18.62 19.11 19.61 20.09 20.37 20.77
17.61 18.18 18.74 19.14 19.07 19.01 19.03 19.35 19.48 19.56 19.61 19.69 19.63 19.59 19.61 19.71 19.69 19.62 19.60 19.73 20.04 20.67 21.46 22.13 22.27 22.80 23.00 22.06 21.43 21.09 20.91 21.08 21.21 21.21 21.07 20.88 20.95 21.07 21.48 22.13 22.14 22.01 23.54 28.29 32.40 33.39 32.45 31.17 29.84 27.60 24.70 21.28 20.33 19.94 19.78 19.78 19.84 19.92 19.89 19.58 19.42 19.01 18.66 18.41 18.79 19.33 19.81 20.19 20.75
17.11 17.84 18.37 18.53 18.49 18.55 18.82 19.18 19.20 19.27 19.31 19.33 19.34 19.31 19.33 19.41 19.27 19.17 19.18 19.31 19.66 20.41 21.21 21.88 22.31 22.36 22.13 21.63 21.16 20.86 20.81 20.95 21.20 21.30 21.21 20.96 20.98 21.04 21.30 21.81 21.69 22.67 25.24 29.43 32.31 33.66 33.47 31.65 30.55 28.93 26.64 23.32 20.99 20.12 20.02 19.95 20.03 20.06 19.94 19.77 19.45 19.26 19.13 18.95 19.12 19.30 19.62 19.88 20.50
16.86 17.47 17.78 17.78 17.91 18.26 18.62 18.86 18.93 19.01 19.12 19.21 19.16 19.05 18.91 18.86 18.87 18.83 18.83 18.83 19.16 19.96 20.88 21.67 21.89 21.71 21.28 20.93 20.99 21.02 21.13 21.23 21.39 21.46 21.30 20.90 21.00 21.17 21.43 21.78 21.85 23.28 26.13 30.12 32.04 33.47 33.81 32.19 30.93 29.69 27.99 25.52 22.27 20.84 20.37 20.15 20.02 20.00 19.86 19.73 19.44 19.31 19.26 19.22 19.39 19.48 19.66 19.91 20.39
16.61 17.10 17.24 17.38 17.63 17.95 18.35 18.66 18.80 18.86 18.99 19.10 18.84 18.59 18.47 18.47 18.41 18.39 18.39 18.41 18.97 19.99 21.10 21.62 21.23 20.75 20.38 20.42 20.69 20.91 21.04 21.37 21.62 21.64 21.39 20.77 20.91 20.99 21.33 21.93 21.74 23.00 25.89 30.11 31.57 32.97 33.59 32.49 31.15 30.01 28.68 26.77 23.18 20.98 19.99 20.04 19.92 19.81 19.67 19.47 19.29 19.23 19.22 19.30 19.43 19.49 19.67 19.86 20.23
16.26 16.59 16.82 17.11 17.40 17.78 18.24 18.59 18.78 18.87 18.76 18.66 18.30 18.14 18.06 17.89 17.89 18.02 18.23 18.49 19.46 20.67 21.53 21.44 20.59 20.11 20.00 20.40 20.59 20.63 20.79 21.25 21.67 21.73 21.51 21.03 21.26 21.15 21.19 21.57 21.66 23.10 26.00 30.10 31.45 32.56 33.12 32.68 31.21 30.11 29.00 27.41 23.85 21.13 19.69 19.92 19.79 19.70 19.44 19.14 19.04 19.00 19.14 19.32 19.44 19.51 19.61 19.75 20.04
15.72 16.21 16.54 16.92 17.21 17.74 18.26 18.61 18.72 18.64 18.43 18.07 17.86 17.74 17.65 17.57 17.83 18.13 18.48 19.10 20.06 20.61 20.74 20.42 19.82 19.61 19.74 20.00 20.19 20.32 20.65 21.19 21.61 21.74 21.66 21.34 20.87 20.82 21.16 21.93 21.98 23.51 26.41 30.24 31.31 32.10 32.67 32.97 31.47 30.22 28.99 27.62 24.15 21.06 19.44 20.26 20.05 19.89 19.62 19.03 18.81 18.89 19.09 19.11 19.34 19.53 19.67 19.81 20.10
15.21 15.85 16.33 16.73 17.19 17.72 18.20 18.49 18.53 18.39 18.07 17.80 17.68 17.54 17.51 17.51 17.88 18.09 18.48 19.44 20.31 20.33 20.09 19.65 19.24 19.05 19.11 19.36 19.51 19.87 20.40 21.39 21.66 21.75 21.70 21.46 21.11 21.10 21.42 22.06 22.23 24.29 27.38 30.41 31.24 31.78 32.20 32.92 31.63 30.15 28.76 27.58 24.08 21.83 20.87 21.28 20.86 20.42 19.98 19.42 19.20 19.13 19.13 19.16 19.34 19.57 19.75 19.90 20.43
14.51 15.61 16.22 16.64 17.19 17.63 18.01 18.30 18.30 18.05 17.76 17.49 17.45 17.46 17.39 17.43 17.38 17.52 18.06 19.51 20.35 20.43 20.02 19.57 19.26 19.15 19.26 19.40 19.43 19.71 20.44 21.76 21.43 21.00 20.72 20.85 21.08 21.20 21.51 21.77 22.12 24.76 28.18 30.34 31.05 31.46 31.89 32.60 31.64 30.00 28.34 27.04 23.80 22.15 21.72 21.76 21.37 20.71 20.14 19.70 19.46 19.13 18.97 18.97 19.37 19.65 19.92 20.19 20.84
14.60 15.50 16.03 16.49 16.98 17.49 17.82 18.08 18.03 17.74 17.40 17.07 17.11 17.16 17.29 17.29 17.13 17.27 18.02 19.71 20.50 20.31 19.77 19.48 19.51 19.57 19.63 19.75 19.74 20.15 20.72 21.09 20.68 20.51 20.62 21.11 21.16 21.21 21.36 21.76 22.40 25.00 28.17 29.89 30.63 31.12 31.58 32.16 31.55 29.86 27.79 25.89 23.22 22.16 21.96 22.04 21.53 20.77 20.15 19.84 19.53 18.98 18.57 18.58 19.17 19.66 20.17 20.50 21.37
15.22 15.49 15.75 16.22 16.77 17.21 17.61 17.81 17.72 17.40 17.09 16.78 16.80 16.91 17.02 17.09 17.27 17.64 18.52 20.15 20.08 19.57 18.97 19.01 19.22 19.28 19.34 19.38 19.66 20.41 20.99 20.56 20.21 20.32 20.76 21.43 21.20 21.02 21.13 21.88 22.51 24.59 27.16 29.03 30.09 30.85 31.29 31.80 31.69 30.27 27.69 24.56 22.38 21.93 22.21 22.34 21.76 21.09 20.42 19.97 19.66 19.38 19.05 18.95 19.19 19.67 20.21 20.61 21.87
15.36 15.47 15.68 15.98 16.60 17.09 17.49 17.60 17.45 17.11 16.79 16.59 16.65 16.72 16.79 16.77 17.17 17.81 18.71 20.02 19.11 18.45 18.18 18.41 18.59 18.70 18.78 18.91 19.46 20.30 20.89 20.80 20.49 20.63 21.03 21.58 21.21 21.17 21.54 22.29 22.37 23.61 25.59 28.13 29.62 30.55 31.09 31.55 31.92 31.12 28.30 22.99 21.35 21.33 21.89 22.26 21.78 21.34 20.81 20.12 19.87 19.64 19.44 19.56 19.79 19.96 20.20 20.48 22.49
15.39 15.49 15.62 15.97 16.43 16.97 17.35 17.46 17.20 16.92 16.56 16.48 16.61 16.74 16.81 16.87 17.24 17.98 18.89 19.88 18.39 17.65 17.47 17.76 18.09 18.37 18.66 19.14 19.87 20.63 21.07 21.06 21.13 21.20 21.18 21.24 21.17 21.66 22.24 22.60 22.18 22.68 24.23 27.16 29.17 30.28 30.97 31.43 31.92 31.58 28.78 22.02 20.81 20.95 21.75 22.17 21.42 21.06 20.72 20.32 20.15 19.93 19.83 19.98 20.34 20.54 20.69 20.99 23.64
15.50 15.56 15.74 15.99 16.44 16.86 17.14 17.24 17.15 16.84 16.60 16.46 16.48 16.68 16.87 17.16 17.64 18.41 19.06 19.35 18.07 17.36 17.12 17.44 17.91 18.35 18.98 20.06 20.71 20.91 20.96 20.98 21.34 21.55 21.52 21.19 21.58 22.70 23.41 22.63 21.73 22.03 23.50 26.48 28.59 29.99 30.85 31.48 31.74 31.95 29.48 21.87 20.43 20.65 21.55 22.18 21.28 20.75 20.45 20.33 20.12 19.98 19.98 20.11 20.31 20.59 21.04 21.56 24.28
15.71 15.92 16.12 16.35 16.69 16.91 17.02 17.14 17.22 17.08 16.85 16.54 16.34 16.52 17.02 17.79 18.36 18.73 18.86 18.57 17.86 17.43 17.43 17.78 18.18 18.64 19.44 20.81 20.94 20.63 20.40 20.70 21.17 21.46 21.66 21.73 22.21 23.53 24.09 22.43 21.30 21.52 23.02 25.84 28.03 29.65 30.68 31.36 31.72 32.28 30.19 22.10 20.10 20.23 21.26 22.15 21.29 20.49 20.02 19.95 19.86 19.80 19.75 19.97 20.30 20.65 21.01 21.67 23.32
15.88 16.18 16.61 17.04 17.08 17.13 17.12 17.13 17.29 17.27 17.05 16.64 16.33 16.99 17.97 18.80 18.48 18.07 17.64 17.53 17.42 17.58 17.92 18.34 18.66 18.89 19.44 20.53 20.58 20.22 20.07 20.33 21.01 21.37 21.69 22.05 22.12 22.85 23.07 21.69 21.05 21.26 22.47 24.78 27.49 29.38 30.54 31.15 31.66 32.45 31.38 26.18 21.06 20.11 21.20 22.16 21.22 20.04 19.30 19.51 19.71 19.62 19.49 19.52 19.97 20.36 20.87 21.48 22.13
MSLP
1037.86 1037.66 1037.44 1037.16 1036.98 1036.82 1036.70 1036.50 1036.30 1036.08 1035.86 1035.64 1035.36 1035.08 1034.80 1034.48 1034.16 1033.88 1033.64 1033.38 1033.14 1032.82 1032.44 1032.08 1031.72 1031.36 1031.02 1030.72 1030.38 1030.08 1029.72 1029.32 1028.88 1028.38 1027.88 1027.38 1026.92 1026.48 1026.08 1025.64 1025.22 1024.82 1024.48 1024.26 1024.20 1024.20 1024.22 1024.30 1024.36 1024.36 1024.32 1024.26 1024.14 1024.04 1023.94 1023.86 1023.72 1023.60 1023.50 1023.42 1023.30 1023.20 1023.08 1022.92 1022.72 1022.54 1022.36 1022.16 1021.98
1037.80 1037.64 1037.42 1037.16 1036.98 1036.82 1036.66 1036.44 1036.22 1036.02 1035.80 1035.54 1035.30 1035.04 1034.76 1034.44 1034.16 1033.92 1033.66 1033.42 1033.16 1032.88 1032.50 1032.10 1031.72 1031.36 1031.02 1030.66 1030.36 1030.04 1029.70 1029.30 1028.80 1028.22 1027.66 1027.14 1026.66 1026.22 1025.76 1025.30 1024.80 1024.30 1023.92 1023.66 1023.64 1023.72 1023.86 1023.94 1024.08 1024.10 1024.08 1024.04 1023.94 1023.82 1023.70 1023.60 1023.48 1023.38 1023.30 1023.22 1023.16 1023.08 1022.92 1022.72 1022.58 1022.38 1022.20 1021.98 1021.80
1037.72 1037.58 1037.38 1037.16 1036.98 1036.80 1036.58 1036.36 1036.14 1035.88 1035.66 1035.44 1035.22 1034.98 1034.72 1034.44 1034.20 1033.94 1033.72 1033.44 1033.20 1032.88 1032.50 1032.10 1031.72 1031.36 1030.98 1030.60 1030.32 1030.04 1029.70 1029.26 1028.72 1028.14 1027.58 1027.04 1026.50 1026.02 1025.54 1025.02 1024.50 1024.02 1023.60 1023.30 1023.26 1023.38 1023.54 1023.70 1023.82 1023.88 1023.88 1023.82 1023.72 1023.60 1023.50 1023.42 1023.36 1023.30 1023.20 1023.14 1023.08 1022.94 1022.80 1022.60 1022.42 1022.22 1022.08 1021.86 1021.64
1037.66 1037.50 1037.30 1037.08 1036.88 1036.72 1036.50 1036.30 1036.04 1035.82 1035.58 1035.36 1035.10 1034.88 1034.66 1034.44 1034.22 1034.02 1033.72 1033.44 1033.14 1032.82 1032.50 1032.14 1031.76 1031.36 1031.02 1030.64 1030.32 1029.98 1029.58 1029.14 1028.64 1028.10 1027.50 1026.98 1026.44 1025.94 1025.42 1024.92 1024.48 1024.02 1023.60 1023.30 1023.20 1023.26 1023.42 1023.60 1023.70 1023.72 1023.70 1023.60 1023.50 1023.48 1023.42 1023.32 1023.26 1023.22 1023.16 1023.08 1022.98 1022.86 1022.72 1022.54 1022.36 1022.16 1021.94 1021.76 1021.58
1037.58 1037.42 1037.22 1037.02 1036.86 1036.64 1036.42 1036.20 1035.98 1035.76 1035.50 1035.26 1035.04 1034.80 1034.58 1034.42 1034.20 1033.94 1033.70 1033.38 1033.10 1032.80 1032.48 1032.14 1031.72 1031.36 1031.02 1030.66 1030.32 1029.92 1029.48 1029.02 1028.58 1028.10 1027.54 1026.98 1026.48 1025.92 1025.38 1024.92 1024.58 1024.20 1023.82 1023.54 1023.36 1023.32 1023.44 1023.58 1023.64 1023.66 1023.64 1023.54 1023.50 1023.44 1023.38 1023.30 1023.26 1023.20 1023.10 1023.02 1022.92 1022.76 1022.60 1022.44 1022.26 1022.10 1021.88 1021.70 1021.54
1037.48 1037.36 1037.16 1036.94 1036.76 1036.54 1036.32 1036.10 1035.92 1035.70 1035.48 1035.22 1034.98 1034.76 1034.54 1034.36 1034.14 1033.92 1033.66 1033.36 1033.04 1032.72 1032.36 1031.98 1031.66 1031.32 1031.02 1030.64 1030.30 1029.86 1029.42 1028.94 1028.54 1028.10 1027.60 1027.04 1026.50 1025.98 1025.48 1025.04 1024.76 1024.44 1024.10 1023.86 1023.64 1023.54 1023.58 1023.64 1023.66 1023.66 1023.64 1023.58 1023.48 1023.42 1023.36 1023.30 1023.22 1023.14 1023.02 1022.86 1022.76 1022.66 1022.54 1022.36 1022.20 1022.04 1021.86 1021.64 1021.44
1037.42 1037.22 1037.04 1036.86 1036.66 1036.44 1036.22 1036.04 1035.86 1035.66 1035.42 1035.14 1034.88 1034.70 1034.54 1034.32 1034.10 1033.86 1033.60 1033.36 1032.98 1032.64 1032.30 1031.92 1031.60 1031.32 1031.02 1030.64 1030.26 1029.86 1029.42 1028.98 1028.58 1028.14 1027.64 1027.16 1026.64 1026.14 1025.66 1025.26 1024.98 1024.70 1024.38 1024.16 1023.94 1023.80 1023.72 1023.72 1023.72 1023.66 1023.60 1023.54 1023.44 1023.36 1023.30 1023.22 1023.16 1023.04 1022.92 1022.76 1022.66 1022.54 1022.42 1022.26 1022.14 1021.94 1021.72 1021.48 1021.30
1037.36 1037.16 1036.98 1036.76 1036.54 1036.36 1036.20 1036.02 1035.82 1035.58 1035.30 1035.04 1034.82 1034.64 1034.48 1034.26 1034.02 1033.76 1033.50 1033.22 1032.88 1032.58 1032.26 1031.94 1031.64 1031.36 1031.04 1030.66 1030.30 1029.88 1029.44 1029.08 1028.64 1028.20 1027.72 1027.26 1026.76 1026.30 1025.86 1025.48 1025.20 1024.92 1024.64 1024.38 1024.16 1024.02 1023.92 1023.82 1023.80 1023.72 1023.64 1023.54 1023.44 1023.32 1023.26 1023.20 1023.10 1023.02 1022.88 1022.70 1022.58 1022.44 1022.32 1022.16 1022.04 1021.86 1021.60 1021.36 1021.10
1037.22 1037.04 1036.88 1036.66 1036.48 1036.32 1036.14 1035.94 1035.72 1035.50 1035.22 1034.98 1034.80 1034.64 1034.44 1034.20 1033.92 1033.66 1033.42 1033.14 1032.86 1032.58 1032.30 1031.98 1031.64 1031.32 1031.02 1030.64 1030.30 1029.94 1029.58 1029.16 1028.76 1028.36 1027.88 1027.42 1026.94 1026.50 1026.08 1025.66 1025.42 1025.14 1024.88 1024.60 1024.38 1024.20 1024.04 1023.92 1023.86 1023.80 1023.66 1023.58 1023.42 1023.30 1023.22 1023.16 1023.10 1022.94 1022.80 1022.60 1022.44 1022.30 1022.16 1022.04 1021.88 1021.72 1021.50 1021.26 1021.04
1037.10 1036.92 1036.72 1036.54 1036.38 1036.26 1036.08 1035.88 1035.64 1035.42 1035.16 1034.92 1034.72 1034.58 1034.36 1034.10 1033.88 1033.64 1033.38 1033.10 1032.82 1032.54 1032.26 1031.94 1031.60 1031.26 1030.94 1030.60 1030.30 1029.98 1029.64 1029.30 1028.92 1028.50 1028.10 1027.60 1027.16 1026.72 1026.30 1025.92 1025.64 1025.38 1025.14 1024.86 1024.60 1024.38 1024.16 1024.02 1023.92 1023.82 1023.72 1023.60 1023.48 1023.36 1023.22 1023.14 1023.04 1022.88 1022.70 1022.54 1022.36 1022.16 1022.02 1021.86 1021.70 1021.54 1021.36 1021.16 1020.92
1037.02 1036.80 1036.60 1036.44 1036.32 1036.16 1036.02 1035.80 1035.54 1035.32 1035.08 1034.86 1034.64 1034.44 1034.22 1034.02 1033.82 1033.60 1033.36 1033.08 1032.80 1032.50 1032.22 1031.92 1031.64 1031.30 1030.94 1030.64 1030.32 1030.02 1029.70 1029.38 1029.02 1028.66 1028.26 1027.80 1027.36 1026.94 1026.50 1026.14 1025.82 1025.58 1025.36 1025.10 1024.86 1024.58 1024.36 1024.16 1024.02 1023.86 1023.72 1023.58 1023.44 1023.32 1023.20 1023.08 1022.94 1022.80 1022.64 1022.48 1022.30 1022.08 1021.88 1021.70 1021.54 1021.36 1021.16 1020.98 1020.76
1036.92 1036.72 1036.54 1036.42 1036.30 1036.10 1035.92 1035.72 1035.48 1035.26 1035.02 1034.80 1034.58 1034.36 1034.16 1033.94 1033.76 1033.50 1033.26 1032.98 1032.76 1032.48 1032.16 1031.88 1031.64 1031.32 1030.98 1030.66 1030.38 1030.08 1029.76 1029.44 1029.14 1028.80 1028.38 1027.94 1027.50 1027.10 1026.72 1026.32 1025.98 1025.72 1025.50 1025.32 1025.08 1024.82 1024.60 1024.36 1024.16 1023.98 1023.76 1023.60 1023.44 1023.32 1023.16 1023.02 1022.88 1022.72 1022.54 1022.38 1022.22 1022.02 1021.82 1021.60 1021.42 1021.22 1021.04 1020.82 1020.60
1036.82 1036.64 1036.48 1036.36 1036.20 1036.08 1035.88 1035.66 1035.44 1035.20 1034.92 1034.70 1034.50 1034.30 1034.10 1033.88 1033.66 1033.42 1033.20 1032.94 1032.70 1032.44 1032.16 1031.86 1031.60 1031.30 1031.02 1030.72 1030.42 1030.14 1029.86 1029.54 1029.22 1028.88 1028.50 1028.10 1027.70 1027.30 1026.88 1026.54 1026.16 1025.86 1025.66 1025.48 1025.26 1025.04 1024.82 1024.60 1024.38 1024.16 1023.94 1023.72 1023.60 1023.44 1023.26 1023.08 1022.92 1022.76 1022.58 1022.38 1022.20 1022.02 1021.82 1021.64 1021.44 1021.22 1021.02 1020.80 1020.60
1036.72 1036.58 1036.42 1036.30 1036.16 1036.02 1035.82 1035.64 1035.42 1035.16 1034.92 1034.66 1034.44 1034.26 1034.04 1033.82 1033.60 1033.38 1033.16 1032.92 1032.66 1032.42 1032.16 1031.86 1031.58 1031.32 1031.04 1030.80 1030.48 1030.20 1029.92 1029.60 1029.26 1028.94 1028.60 1028.22 1027.82 1027.44 1027.04 1026.72 1026.36 1026.02 1025.80 1025.64 1025.44 1025.22 1025.04 1024.82 1024.58 1024.36 1024.16 1023.98 1023.80 1023.60 1023.42 1023.22 1023.04 1022.88 1022.70 1022.54 1022.36 1022.16 1021.98 1021.80 1021.60 1021.38 1021.14 1020.88 1020.66
1036.70 1036.50 1036.36 1036.22 1036.10 1035.94 1035.76 1035.58 1035.36 1035.10 1034.86 1034.64 1034.42 1034.22 1034.02 1033.76 1033.54 1033.36 1033.14 1032.92 1032.70 1032.38 1032.10 1031.88 1031.60 1031.32 1031.04 1030.76 1030.50 1030.20 1029.92 1029.64 1029.32 1028.98 1028.64 1028.26 1027.92 1027.54 1027.20 1026.88 1026.58 1026.26 1026.02 1025.86 1025.60 1025.38 1025.20 1024.98 1024.76 1024.54 1024.32 1024.16 1023.98 1023.76 1023.58 1023.38 1023.20 1023.04 1022.86 1022.72 1022.54 1022.38 1022.16 1021.98 1021.80 1021.58 1021.32 1021.08 1020.82
1036.66 1036.48 1036.36 1036.20 1036.04 1035.86 1035.70 1035.54 1035.32 1035.08 1034.82 1034.60 1034.42 1034.20 1033.98 1033.76 1033.54 1033.36 1033.14 1032.88 1032.64 1032.36 1032.10 1031.88 1031.64 1031.32 1031.02 1030.76 1030.48 1030.20 1029.88 1029.60 1029.36 1029.04 1028.70 1028.36 1028.04 1027.70 1027.36 1027.04 1026.76 1026.48 1026.22 1026.04 1025.80 1025.54 1025.30 1025.10 1024.92 1024.70 1024.48 1024.30 1024.10 1023.88 1023.70 1023.50 1023.36 1023.16 1022.98 1022.86 1022.70 1022.50 1022.32 1022.10 1021.92 1021.70 1021.48 1021.20 1020.92
1036.64 1036.44 1036.30 1036.16 1036.02 1035.82 1035.66 1035.50 1035.30 1035.08 1034.82 1034.60 1034.42 1034.16 1033.94 1033.72 1033.50 1033.32 1033.10 1032.92 1032.66 1032.38 1032.10 1031.86 1031.60 1031.32 1031.02 1030.72 1030.50 1030.22 1029.94 1029.66 1029.38 1029.14 1028.86 1028.54 1028.22 1027.86 1027.50 1027.20 1026.92 1026.66 1026.44 1026.22 1025.98 1025.70 1025.42 1025.22 1025.02 1024.80 1024.60 1024.38 1024.20 1024.02 1023.80 1023.64 1023.42 1023.22 1023.04 1022.88 1022.76 1022.60 1022.38 1022.20 1022.02 1021.80 1021.54 1021.26 1021.02
1036.60 1036.42 1036.26 1036.10 1035.94 1035.80 1035.60 1035.42 1035.22 1035.04 1034.82 1034.64 1034.38 1034.14 1033.92 1033.70 1033.50 1033.30 1033.08 1032.88 1032.66 1032.42 1032.14 1031.82 1031.58 1031.30 1031.02 1030.76 1030.54 1030.30 1030.04 1029.80 1029.50 1029.26 1028.98 1028.70 1028.36 1028.02 1027.64 1027.32 1027.04 1026.80 1026.58 1026.36 1026.14 1025.86 1025.58 1025.32 1025.08 1024.88 1024.70 1024.48 1024.26 1024.10 1023.88 1023.66 1023.48 1023.30 1023.10 1022.92 1022.76 1022.60 1022.44 1022.26 1022.04 1021.82 1021.58 1021.36 1021.10
1036.58 1036.38 1036.22 1036.08 1035.92 1035.72 1035.58 1035.38 1035.20 1035.02 1034.82 1034.60 1034.38 1034.10 1033.88 1033.66 1033.48 1033.22 1032.98 1032.80 1032.58 1032.38 1032.14 1031.88 1031.58 1031.26 1030.98 1030.72 1030.50 1030.30 1030.08 1029.86 1029.64 1029.36 1029.08 1028.76 1028.44 1028.08 1027.72 1027.36 1027.10 1026.88 1026.66 1026.44 1026.22 1025.94 1025.66 1025.42 1025.16 1024.98 1024.80 1024.58 1024.38 1024.16 1023.94 1023.76 1023.58 1023.38 1023.20 1022.98 1022.80 1022.64 1022.44 1022.26 1022.04 1021.86 1021.64 1021.44 1021.22
1036.50 1036.36 1036.20 1036.04 1035.88 1035.70 1035.50 1035.32 1035.16 1034.98 1034.80 1034.58 1034.32 1034.08 1033.82 1033.60 1033.38 1033.16 1032.92 1032.72 1032.50 1032.32 1032.10 1031.86 1031.58 1031.26 1030.94 1030.70 1030.44 1030.26 1030.08 1029.86 1029.64 1029.38 1029.08 1028.80 1028.50 1028.16 1027.80 1027.44 1027.14 1026.88 1026.70 1026.50 1026.30 1026.02 1025.70 1025.44 1025.26 1025.08 1024.88 1024.66 1024.48 1024.30 1024.08 1023.86 1023.66 1023.48 1023.30 1023.08 1022.88 1022.72 1022.54 1022.32 1022.10 1021.92 1021.70 1021.50 1021.32
1036.48 1036.30 1036.14 1035.94 1035.82 1035.64 1035.44 1035.26 1035.10 1034.92 1034.72 1034.50 1034.30 1034.04 1033.80 1033.58 1033.32 1033.10 1032.92 1032.70 1032.48 1032.26 1032.04 1031.80 1031.54 1031.26 1030.98 1030.70 1030.42 1030.20 1030.02 1029.80 1029.60 1029.38 1029.10 1028.80 1028.50 1028.22 1027.88 1027.54 1027.20 1026.88 1026.66 1026.48 1026.30 1026.02 1025.70 1025.48 1025.26 1025.10 1024.94 1024.76 1024.58 1024.42 1024.22 1024.02 1023.80 1023.60 1023.38 1023.20 1023.02 1022.86 1022.66 1022.48 1022.22 1022.02 1021.80 1021.58 1021.38
1036.44 1036.26 1036.10 1035.92 1035.72 1035.54 1035.36 1035.16 1035.02 1034.86 1034.66 1034.44 1034.22 1033.98 1033.76 1033.54 1033.30 1033.08 1032.88 1032.66 1032.44 1032.22 1031.98 1031.72 1031.50 1031.26 1031.02 1030.76 1030.50 1030.22 1029.94 1029.70 1029.48 1029.30 1029.10 1028.82 1028.54 1028.22 1027.92 1027.58 1027.22 1026.92 1026.64 1026.36 1026.16 1025.92 1025.64 1025.44 1025.26 1025.10 1024.94 1024.80 1024.64 1024.48 1024.30 1024.14 1023.88 1023.66 1023.48 1023.32 1023.14 1022.94 1022.80 1022.60 1022.38 1022.16 1021.94 1021.72 1021.50
1036.38 1036.22 1036.04 1035.82 1035.66 1035.48 1035.26 1035.14 1034.94 1034.76 1034.58 1034.36 1034.14 1033.92 1033.70 1033.48 1033.26 1033.04 1032.82 1032.60 1032.36 1032.14 1031.92 1031.70 1031.44 1031.22 1030.98 1030.76 1030.54 1030.30 1029.98 1029.64 1029.32 1029.10 1028.94 1028.76 1028.50 1028.22 1027.92 1027.60 1027.22 1026.92 1026.58 1026.20 1025.94 1025.70 1025.50 1025.36 1025.20 1025.04 1024.88 1024.76 1024.64 1024.48 1024.36 1024.20 1024.02 1023.80 1023.60 1023.42 1023.22 1023.04 1022.88 1022.72 1022.54 1022.32 1022.10 1021.86 1021.64
1036.36 1036.16 1035.98 1035.76 1035.58 1035.38 1035.22 1035.04 1034.88 1034.70 1034.48 1034.30 1034.08 1033.86 1033.66 1033.44 1033.22 1033.02 1032.76 1032.54 1032.32 1032.10 1031.88 1031.66 1031.42 1031.14 1030.92 1030.66 1030.48 1030.26 1030.02 1029.70 1029.36 1029.04 1028.80 1028.58 1028.42 1028.20 1027.88 1027.58 1027.22 1026.94 1026.60 1026.08 1025.60 1025.32 1025.20 1025.16 1025.10 1025.02 1024.86 1024.72 1024.60 1024.48 1024.36 1024.22 1024.08 1023.88 1023.70 1023.54 1023.30 1023.10 1022.94 1022.76 1022.60 1022.42 1022.20 1021.98 1021.76
1036.30 1036.10 1035.92 1035.70 1035.50 1035.36 1035.16 1034.98 1034.80 1034.60 1034.42 1034.22 1034.02 1033.80 1033.60 1033.38 1033.16 1032.94 1032.72 1032.50 1032.26 1032.04 1031.82 1031.60 1031.36 1031.08 1030.80 1030.58 1030.38 1030.22 1030.02 1029.72 1029.42 1029.10 1028.80 1028.50 1028.30 1028.10 1027.86 1027.50 1027.20 1026.98 1026.66 1026.08 1025.54 1025.08 1024.86 1024.88 1024.94 1024.92 1024.82 1024.70 1024.58 1024.44 1024.32 1024.20 1024.08 1023.92 1023.80 1023.60 1023.38 1023.20 1023.02 1022.80 1022.60 1022.42 1022.26 1022.08 1021.86
1036.22 1036.02 1035.82 1035.64 1035.44 1035.26 1035.10 1034.92 1034.72 1034.54 1034.36 1034.16 1033.94 1033.72 1033.54 1033.36 1033.14 1032.94 1032.72 1032.48 1032.26 1032.04 1031.80 1031.54 1031.30 1031.02 1030.72 1030.50 1030.36 1030.16 1029.94 1029.70 1029.44 1029.20 1028.92 1028.58 1028.26 1028.02 1027.76 1027.48 1027.22 1027.04 1026.72 1026.22 1025.64 1025.10 1024.80 1024.70 1024.76 1024.82 1024.82 1024.70 1024.58 1024.42 1024.30 1024.16 1024.04 1023.94 1023.82 1023.64 1023.44 1023.26 1023.08 1022.86 1022.64 1022.42 1022.22 1022.08 1021.88
1036.16 1035.94 1035.72 1035.54 1035.36 1035.20 1035.02 1034.86 1034.66 1034.48 1034.30 1034.10 1033.88 1033.70 1033.50 1033.32 1033.14 1032.92 1032.66 1032.48 1032.26 1032.02 1031.72 1031.48 1031.22 1030.98 1030.76 1030.54 1030.36 1030.14 1029.92 1029.70 1029.44 1029.22 1028.98 1028.66 1028.36 1028.08 1027.76 1027.44 1027.20 1026.98 1026.66 1026.20 1025.66 1025.22 1024.92 1024.66 1024.64 1024.70 1024.72 1024.72 1024.58 1024.44 1024.32 1024.14 1024.04 1023.94 1023.82 1023.64 1023.50 1023.36 1023.16 1022.94 1022.72 1022.50 1022.30 1022.08 1021.88
1036.10 1035.88 1035.66 1035.48 1035.32 1035.14 1034.94 1034.76 1034.58 1034.42 1034.22 1034.04 1033.86 1033.66 1033.44 1033.26 1033.08 1032.86 1032.60 1032.42 1032.20 1031.94 1031.66 1031.42 1031.22 1031.02 1030.80 1030.54 1030.36 1030.14 1029.92 1029.70 1029.44 1029.20 1028.92 1028.66 1028.38 1028.08 1027.76 1027.48 1027.20 1026.92 1026.54 1026.02 1025.50 1025.20 1024.98 1024.72 1024.64 1024.60 1024.64 1024.66 1024.60 1024.50 1024.36 1024.20 1024.08 1023.94 1023.82 1023.66 1023.58 1023.42 1023.20 1023.02 1022.82 1022.58 1022.36 1022.10 1021.88
1036.08 1035.86 1035.66 1035.44 1035.26 1035.08 1034.86 1034.66 1034.48 1034.32 1034.16 1033.94 1033.76 1033.60 1033.38 1033.16 1032.98 1032.76 1032.54 1032.32 1032.14 1031.92 1031.66 1031.42 1031.22 1031.02 1030.82 1030.58 1030.36 1030.10 1029.88 1029.64 1029.42 1029.16 1028.92 1028.64 1028.36 1028.04 1027.72 1027.44 1027.16 1026.86 1026.50 1025.98 1025.42 1025.08 1024.94 1024.80 1024.70 1024.64 1024.60 1024.58 1024.58 1024.48 1024.36 1024.22 1024.14 1023.98 1023.86 1023.72 1023.64 1023.48 1023.30 1023.10 1022.88 1022.66 1022.44 1022.16 1021.92
1036.02 1035.82 1035.64 1035.42 1035.22 1035.04 1034.82 1034.60 1034.44 1034.30 1034.10 1033.92 1033.72 1033.54 1033.32 1033.10 1032.92 1032.70 1032.48 1032.30 1032.10 1031.88 1031.66 1031.44 1031.26 1031.08 1030.86 1030.60 1030.38 1030.10 1029.86 1029.60 1029.38 1029.14 1028.88 1028.60 1028.32 1028.02 1027.72 1027.44 1027.20 1026.88 1026.50 1026.02 1025.48 1025.14 1024.98 1024.88 1024.76 1024.70 1024.64 1024.60 1024.60 1024.50 1024.38 1024.26 1024.16 1024.08 1023.94 1023.86 1023.72 1023.58 1023.38 1023.14 1022.94 1022.72 1022.50 1022.20 1021.94
1035.94 1035.76 1035.58 1035.38 1035.20 1034.98 1034.76 1034.58 1034.38 1034.22 1034.08 1033.88 1033.70 1033.48 1033.30 1033.08 1032.88 1032.66 1032.48 1032.26 1032.04 1031.82 1031.60 1031.44 1031.26 1031.04 1030.82 1030.60 1030.38 1030.14 1029.88 1029.60 1029.32 1029.10 1028.88 1028.60 1028.36 1028.08 1027.76 1027.42 1027.14 1026.86 1026.48 1025.98 1025.50 1025.16 1025.02 1024.92 1024.86 1024.76 1024.70 1024.70 1024.64 1024.54 1024.38 1024.26 1024.20 1024.14 1024.02 1023.92 1023.80 1023.64 1023.42 1023.22 1022.98 1022.76 1022.50 1022.26 1021.98
1035.92 1035.72 1035.54 1035.32 1035.14 1034.92 1034.72 1034.50 1034.36 1034.20 1034.04 1033.86 1033.66 1033.44 1033.22 1033.02 1032.82 1032.64 1032.44 1032.22 1031.98 1031.76 1031.58 1031.38 1031.20 1031.02 1030.80 1030.54 1030.32 1030.10 1029.86 1029.58 1029.32 1029.08 1028.86 1028.64 1028.36 1028.08 1027.76 1027.38 1027.08 1026.76 1026.38 1025.92 1025.54 1025.20 1024.94 1024.88 1024.88 1024.82 1024.76 1024.76 1024.72 1024.58 1024.42 1024.22 1024.16 1024.10 1024.02 1023.92 1023.82 1023.66 1023.50 1023.32 1023.08 1022.80 1022.54 1022.30 1022.02
1035.86 1035.66 1035.48 1035.30 1035.10 1034.88 1034.66 1034.48 1034.32 1034.16 1033.98 1033.80 1033.60 1033.42 1033.20 1032.98 1032.76 1032.58 1032.38 1032.14 1031.88 1031.72 1031.54 1031.36 1031.20 1031.02 1030.80 1030.60 1030.36 1030.10 1029.82 1029.54 1029.30 1029.08 1028.86 1028.64 1028.38 1028.08 1027.72 1027.36 1027.04 1026.70 1026.32 1025.88 1025.58 1025.20 1024.88 1024.80 1024.88 1024.92 1024.86 1024.82 1024.80 1024.64 1024.38 1024.16 1024.08 1024.02 1023.98 1023.88 1023.80 1023.64 1023.50 1023.36 1023.14 1022.88 1022.60 1022.36 1022.08
1035.80 1035.64 1035.44 1035.22 1035.04 1034.86 1034.64 1034.44 1034.30 1034.14 1033.94 1033.76 1033.50 1033.32 1033.14 1032.94 1032.76 1032.54 1032.32 1032.08 1031.82 1031.66 1031.50 1031.36 1031.22 1031.04 1030.82 1030.60 1030.38 1030.14 1029.82 1029.54 1029.30 1029.08 1028.86 1028.58 1028.32 1028.02 1027.70 1027.36 1027.04 1026.66 1026.26 1025.88 1025.58 1025.22 1024.94 1024.76 1024.92 1024.98 1024.94 1024.88 1024.86 1024.64 1024.36 1024.08 1023.98 1023.98 1023.92 1023.82 1023.70 1023.60 1023.50 1023.32 1023.14 1022.92 1022.70 1022.42 1022.10
1035.76 1035.58 1035.38 1035.20 1034.98 1034.80 1034.60 1034.38 1034.22 1034.04 1033.88 1033.70 1033.48 1033.26 1033.08 1032.92 1032.72 1032.54 1032.32 1032.04 1031.82 1031.64 1031.48 1031.32 1031.16 1030.98 1030.76 1030.54 1030.36 1030.10 1029.82 1029.58 1029.32 1029.10 1028.86 1028.54 1028.26 1027.98 1027.66 1027.32 1027.04 1026.66 1026.26 1025.92 1025.58 1025.26 1024.98 1024.76 1024.88 1024.98 1024.98 1024.94 1024.92 1024.70 1024.38 1024.04 1023.94 1023.92 1023.92 1023.80 1023.66 1023.58 1023.44 1023.30 1023.10 1022.94 1022.72 1022.48 1022.14
1035.64 1035.50 1035.32 1035.16 1034.94 1034.76 1034.54 1034.36 1034.16 1033.98 1033.82 1033.64 1033.42 1033.22 1033.04 1032.86 1032.70 1032.50 1032.30 1032.04 1031.82 1031.64 1031.44 1031.26 1031.08 1030.86 1030.66 1030.44 1030.22 1030.02 1029.76 1029.60 1029.36 1029.10 1028.82 1028.54 1028.26 1027.98 1027.66 1027.36 1027.04 1026.70 1026.32 1025.98 1025.64 1025.32 1024.98 1024.72 1024.66 1024.80 1024.94 1024.98 1024.92 1024.66 1024.32 1024.02 1023.94 1023.92 1023.88 1023.76 1023.64 1023.54 1023.42 1023.26 1023.10 1022.94 1022.76 1022.50 1022.16
1035.58 1035.44 1035.30 1035.10 1034.92 1034.70 1034.50 1034.32 1034.14 1033.94 1033.76 1033.60 1033.38 1033.20 1033.02 1032.86 1032.64 1032.44 1032.22 1032.02 1031.80 1031.60 1031.42 1031.22 1031.04 1030.82 1030.64 1030.42 1030.20 1029.98 1029.76 1029.58 1029.36 1029.08 1028.80 1028.50 1028.26 1028.02 1027.70 1027.36 1027.08 1026.80 1026.44 1026.08 1025.70 1025.36 1025.02 1024.70 1024.36 1024.44 1024.76 1024.94 1024.86 1024.60 1024.30 1024.02 1023.94 1023.88 1023.82 1023.72 1023.60 1023.54 1023.44 1023.26 1023.08 1022.88 1022.72 1022.50 1022.14
1035.48 1035.38 1035.22 1035.08 1034.86 1034.64 1034.44 1034.30 1034.10 1033.92 1033.72 1033.54 1033.36 1033.16 1032.98 1032.80 1032.58 1032.38 1032.16 1031.98 1031.82 1031.64 1031.44 1031.22 1031.02 1030.80 1030.60 1030.42 1030.14 1029.88 1029.66 1029.48 1029.30 1029.04 1028.76 1028.48 1028.26 1027.98 1027.70 1027.38 1027.14 1026.88 1026.58 1026.20 1025.80 1025.38 1025.04 1024.66 1024.22 1024.22 1024.50 1024.82 1024.72 1024.54 1024.26 1024.02 1023.94 1023.88 1023.82 1023.72 1023.60 1023.48 1023.38 1023.26 1023.08 1022.86 1022.64 1022.48 1022.10
1035.38 1035.30 1035.14 1034.98 1034.80 1034.60 1034.42 1034.22 1034.04 1033.88 1033.70 1033.50 1033.30 1033.10 1032.92 1032.72 1032.50 1032.30 1032.14 1032.02 1031.88 1031.72 1031.50 1031.26 1030.98 1030.76 1030.58 1030.32 1030.04 1029.80 1029.58 1029.36 1029.16 1028.94 1028.70 1028.44 1028.20 1027.94 1027.66 1027.44 1027.22 1026.98 1026.66 1026.26 1025.82 1025.44 1025.04 1024.66 1024.16 1024.08 1024.36 1024.72 1024.66 1024.48 1024.22 1024.02 1023.98 1023.92 1023.86 1023.76 1023.60 1023.44 1023.32 1023.22 1023.08 1022.86 1022.60 1022.42 1022.08
1035.30 1035.16 1035.04 1034.88 1034.70 1034.50 1034.36 1034.16 1033.98 1033.82 1033.66 1033.48 1033.30 1033.08 1032.88 1032.66 1032.44 1032.26 1032.10 1031.98 1031.82 1031.66 1031.44 1031.20 1030.94 1030.72 1030.48 1030.20 1029.94 1029.72 1029.50 1029.26 1029.04 1028.86 1028.64 1028.38 1028.14 1027.86 1027.64 1027.44 1027.26 1027.02 1026.70 1026.30 1025.88 1025.44 1025.08 1024.70 1024.16 1023.94 1024.16 1024.64 1024.60 1024.42 1024.22 1024.04 1023.98 1023.94 1023.88 1023.80 1023.66 1023.50 1023.32 1023.20 1023.04 1022.82 1022.60 1022.32 1022.08
1035.16 1035.04 1034.88 1034.72 1034.60 1034.44 1034.26 1034.10 1033.88 1033.72 1033.54 1033.42 1033.26 1033.04 1032.80 1032.58 1032.42 1032.26 1032.08 1031.92 1031.72 1031.54 1031.32 1031.08 1030.82 1030.60 1030.38 1030.14 1029.88 1029.64 1029.38 1029.14 1028.88 1028.70 1028.50 1028.30 1028.04 1027.82 1027.60 1027.48 1027.30 1027.02 1026.66 1026.30 1025.92 1025.50 1025.14 1024.76 1024.30 1023.94 1023.94 1024.32 1024.44 1024.36 1024.16 1024.02 1023.94 1023.92 1023.88 1023.82 1023.70 1023.54 1023.38 1023.16 1022.98 1022.76 1022.54 1022.30 1022.04
Wind_Speed
7 7 6 6 6 6 6 6 6 7 7 7 8 8 8 9 9 9 9 9 10 10 11 11 12 13 15 19 20 21 21 22 23 24 24 24 23 22 22 21 20 19 18 16 14 13 11 10 9 7 6 7 7 8 8 8 9 9 9 9 8 9 10 11 11 12 13 13 11
7 7 7 7 7 6 6 6 6 7 7 7 7 8 8 9 9 9 10 10 10 10 11 11 13 15 17 20 20 20 20 21 23 24 23 23 23 23 22 21 20 19 18 15 12 10 8 8 7 6 6 6 7 7 8 8 9 9 10 10 9 8 8 9 10 10 11 12 10
7 7 7 7 8 7 7 6 7 8 9 8 8 8 8 8 9 9 9 10 11 11 11 11 13 15 17 19 19 19 19 20 22 22 22 21 22 23 23 21 21 20 17 13 9 7 6 7 6 5 5 6 7 7 8 8 9 9 9 10 8 7 7 7 8 8 8 8 9
7 7 7 8 9 9 8 7 8 9 9 8 8 8 9 8 8 9 10 11 12 12 12 12 13 14 16 17 19 20 20 21 22 22 22 22 23 24 23 22 21 20 18 15 10 6 5 5 5 5 5 7 8 8 7 7 8 8 7 7 7 6 6 6 7 7 7 7 8
7 7 7 8 9 9 9 8 9 10 9 8 8 8 8 8 9 9 10 11 11 11 13 15 14 14 15 17 20 21 21 21 21 21 20 22 22 23 23 21 20 20 18 17 13 8 5 4 3 4 5 6 6 6 7 8 8 7 7 6 6 6 6 6 6 6 7 7 7
7 7 7 8 9 9 9 9 10 10 9 8 9 9 10 9 9 10 11 11 12 13 15 16 15 15 16 18 19 20 20 20 19 20 21 22 21 22 22 20 20 20 18 17 15 11 7 3 3 3 4 4 5 6 7 7 7 7 7 6 6 6 6 7 6 7 7 8 9
7 7 8 9 9 9 9 10 10 10 9 9 10 12 12 11 12 13 13 12 12 13 13 13 14 15 17 18 18 18 19 19 19 20 21 20 21 22 21 19 20 20 18 17 15 12 8 4 3 3 4 4 4 5 6 6 6 7 7 7 6 6 6 7 7 7 8 10 12
7 7 8 9 9 10 10 11 10 10 9 9 10 12 13 14 14 15 14 13 12 12 12 12 15 16 17 17 17 18 18 19 19 20 20 20 22 22 20 18 19 19 18 16 15 12 9 5 3 3 4 4 4 5 6 7 7 8 8 8 7 7 6 6 7 7 9 11 12
7 7 8 9 9 10 10 11 11 10 10 11 12 13 13 14 15 14 14 12 12 12 13 13 15 17 18 18 18 18 18 18 19 19 20 20 21 21 20 16 17 17 16 15 14 13 10 6 4 4 4 4 4 5 6 8 8 9 9 8 8 8 7 7 8 8 9 11 12
8 8 8 9 9 10 10 10 11 11 11 12 12 13 13 14 14 13 12 11 12 13 13 14 15 17 17 17 17 17 17 17 17 18 19 19 20 20 19 15 16 16 15 14 13 12 11 8 6 6 5 5 6 7 7 8 8 9 9 7 7 9 9 9 9 9 10 10 11
8 9 9 9 9 10 10 10 10 10 11 11 12 13 13 13 13 13 12 12 13 14 15 14 16 16 16 15 16 16 16 16 16 17 18 19 20 20 19 16 15 15 15 14 13 11 10 9 9 9 8 6 6 6 7 8 8 8 8 8 8 9 10 10 9 9 8 9 10
8 9 9 9 9 10 10 10 9 10 10 11 12 12 12 12 13 13 13 13 14 14 14 14 15 15 15 14 15 15 16 16 17 17 18 19 19 19 19 17 15 15 14 14 12 11 10 10 11 12 11 10 8 7 7 8 8 8 8 8 9 9 9 10 10 8 7 7 8
9 9 9 9 10 10 10 10 9 9 10 11 12 12 11 11 12 13 13 14 14 13 13 13 14 14 14 14 15 15 15 16 17 17 17 18 19 19 19 18 16 15 14 13 12 11 11 11 12 13 13 13 10 9 10 10 10 9 9 10 10 10 10 11 11 10 10 9 9
9 9 9 9 10 10 9 9 9 9 10 12 12 11 11 11 12 12 13 13 13 13 12 13 13 13 13 14 15 16 16 16 17 17 18 18 18 19 19 17 17 15 13 12 12 12 12 11 12 12 13 13 12 12 12 11 11 11 11 11 11 11 11 12 12 12 12 12 12
9 9 10 10 10 9 9 9 8 9 10 11 11 11 11 10 11 11 12 12 13 12 12 12 12 12 13 15 15 16 16 16 17 17 18 18 19 19 18 17 17 15 13 12 12 12 12 11 11 12 12 12 12 12 11 11 11 11 11 11 11 11 11 12 12 12 12 12 13
9 10 10 10 10 10 9 9 8 9 10 10 11 11 11 10 10 11 12 12 12 11 11 12 12 12 12 14 15 15 16 16 16 17 17 18 19 19 18 18 17 15 13 11 11 11 11 11 10 11 11 11 11 11 11 11 11 11 11 11 11 11 11 12 12 11 12 12 13
9 9 9 9 10 10 10 9 9 9 10 11 11 11 11 10 10 10 11 12 11 11 12 13 12 12 12 13 13 14 14 15 15 16 16 17 18 18 18 17 16 15 13 10 10 11 11 11 10 10 11 11 10 10 11 11 11 11 11 11 11 11 11 11 11 11 11 13 14
9 9 9 10 10 10 10 10 10 10 11 11 11 11 11 11 11 11 11 12 12 12 13 14 13 12 12 13 13 12 12 13 14 15 15 16 17 17 17 17 16 15 13 9 9 9 10 10 11 11 11 11 10 10 11 11 11 11 11 11 11 11 11 12 11 11 11 13 14
9 9 10 10 10 10 10 11 11 11 11 11 11 11 11 12 12 12 11 12 12 13 13 13 13 13 13 13 13 12 12 12 13 14 15 15 16 16 17 17 15 14 13 10 7 7 8 9 10 11 10 10 11 11 11 11 11 11 12 11 12 12 12 12 12 12 13 13 14
9 9 10 10 10 10 10 10 10 11 11 10 11 11 12 12 12 12 12 13 13 13 13 13 13 13 13 13 13 13 12 11 12 13 14 14 15 16 16 17 16 15 13 10 7 6 7 8 9 10 10 10 10 11 11 11 11 11 11 11 11 12 13 13 14 14 14 14 14
9 9 9 10 10 10 10 10 10 10 10 10 11 11 12 12 12 13 13 13 13 13 13 12 13 13 13 13 14 14 13 11 11 12 13 13 14 15 15 15 15 15 13 10 6 4 5 7 8 8 8 9 9 10 10 11 11 11 12 11 12 13 13 14 14 14 15 15 14
9 9 9 9 9 10 10 10 10 10 10 10 11 11 12 12 12 12 13 13 13 13 13 12 12 12 13 13 13 13 13 12 12 12 12 12 13 14 14 14 15 15 14 12 7 3 3 6 7 7 7 7 8 8 9 10 10 11 12 13 13 13 13 14 14 14 14 14 14
9 9 9 9 9 10 10 10 10 10 10 10 11 11 11 12 12 12 13 13 12 13 12 12 12 12 12 11 12 13 13 14 14 13 13 13 13 14 14 13 14 15 15 12 6 2 2 4 5 6 6 7 7 7 8 9 10 10 11 12 13 13 13 13 13 13 13 14 14
9 9 9 8 9 10 10 10 10 10 10 10 11 11 11 12 12 12 12 12 12 12 12 11 11 11 11 11 11 12 13 14 15 15 15 14 14 14 14 12 12 13 13 11 5 3 5 5 5 5 6 6 6 7 8 8 9 9 10 11 12 12 12 12 12 12 13 13 13
9 9 9 9 10 10 10 10 10 10 10 10 11 11 11 11 12 12 12 12 12 12 12 12 11 11 11 11 11 12 13 13 14 15 16 16 15 14 13 12 11 10 11 12 12 12 11 10 8 6 6 6 7 7 7 7 8 9 9 10 11 11 12 12 12 12 12 12 12
9 9 10 10 10 10 10 10 10 10 10 10 11 11 11 11 11 11 11 12 12 12 12 11 11 11 11 11 12 12 12 12 13 14 15 15 16 15 14 12 10 9 10 15 18 16 15 15 13 10 7 6 7 7 7 8 8 9 9 9 10 11 11 11 12 13 13 12 12
9 9 10 10 10 10 10 10 10 10 10 10 11 11 11 11 10 11 11 11 11 11 11 10 10 11 11 10 11 12 12 12 12 13 13 14 15 15 15 13 11 10 12 19 22 19 16 16 16 14 11 7 7 7 7 8 9 9 9 9 10 10 11 11 12 12 13 13 13
9 9 10 10 11 11 11 10 10 10 11 11 11 11 11 11 11 11 11 11 11 11 10 10 10 9 9 9 11 12 12 12 12 12 13 13 14 15 15 13 12 13 16 23 25 22 18 15 16 15 13 9 7 6 7 8 9 9 8 8 9 10 11 10 11 11 12 13 13
9 9 10 10 10 11 11 11 11 11 11 11 11 11 11 11 11 11 11 11 11 11 10 9 9 8 8 10 11 12 12 12 12 12 12 13 14 15 14 14 14 15 19 26 27 25 21 15 15 16 15 12 8 6 6 7 8 8 8 8 9 9 10 10 10 11 11 12 13
9 9 9 10 10 10 11 11 11 11 10 10 10 10 11 11 11 11 11 11 11 10 10 9 9 10 10 11 11 11 12 12 11 12 12 13 14 15 15 15 14 15 18 25 27 26 23 16 15 15 15 13 9 6 6 6 7 8 8 8 9 10 10 10 11 12 12 12 13
8 9 9 10 10 10 10 11 10 10 10 10 10 10 11 11 11 11 10 10 10 10 10 11 11 12 12 12 11 11 12 12 12 12 12 13 14 15 15 15 14 15 18 24 26 26 23 16 14 14 14 13 9 6 5 6 7 7 8 8 9 10 11 10 11 12 13 14 13
8 8 9 9 10 10 10 11 10 10 10 10 10 10 10 11 10 10 10 10 10 10 11 11 12 12 12 12 12 12 12 12 12 13 13 13 14 14 15 15 14 15 18 24 26 26 23 18 15 14 13 12 8 5 4 6 7 7 8 9 9 10 11 10 10 12 14 14 14
8 8 9 9 10 10 10 10 10 10 10 10 10 10 10 11 10 10 10 10 10 10 10 11 11 12 12 12 12 12 12 12 13 13 14 14 14 14 15 14 13 15 19 24 26 26 25 21 16 13 12 11 8 5 5 6 7 7 8 9 9 10 11 11 11 12 13 14 14
7 8 9 9 10 10 10 10 10 10 10 10 10 10 10 10 11 11 10 10 10 10 10 10 10 10 10 11 11 11 12 12 12 13 13 14 14 14 14 13 11 15 20 25 26 26 25 23 16 12 10 10 7 5 5 7 8 8 9 10 10 10 10 10 11 12 12 14 13
7 8 8 9 9 10 10 10 10 10 10 10 10 10 10 10 10 10 10 11 10 10 10 10 10 10 10 10 10 11 11 12 12 13 13 13 14 14 15 14 13 17 22 25 26 26 26 24 16 11 8 7 5 4 5 7 8 9 9 10 11 11 11 10 10 11 12 12 13
7 7 8 9 9 10 10 10 10 10 10 10 10 11 11 11 10 10 10 10 10 10 10 11 10 10 11 11 11 11 11 11 12 12 13 13 14 14 14 15 15 18 22 24 25 26 26 25 17 11 7 5 4 4 4 6 7 8 9 10 11 11 11 10 9 10 10 11 13
7 7 8 8 9 9 10 10 10 10 10 10 10 10 10 10 10 10 10 10 10 10 11 11 11 11 11 11 11 11 11 10 11 12 12 13 13 13 14 14 15 17 20 23 25 25 26 26 22 15 7 1 3 3 4 5 6 7 8 9 10 10 10 9 9 9 10 10 13
6 7 7 8 8 9 9 9 9 9 10 10 10 10 10 9 9 9 9 9 9 10 10 11 11 11 11 11 11 11 11 11 11 12 12 13 13 13 13 14 14 15 18 21 24 25 26 26 25 18 9 2 2 3 3 5 6 7 7 8 9 10 10 8 8 9 9 11 15
7 6 7 7 8 8 9 9 9 9 9 10 10 10 9 9 8 9 9 9 9 9 9 10 10 11 11 11 10 10 11 11 11 11 12 12 13 13 14 14 14 15 17 21 24 25 26 26 25 19 11 5 1 2 3 5 6 6 7 7 8 9 9 9 8 8 9 11 15
7 6 6 7 7 8 8 9 9 9 9 9 9 9 9 9 9 9 9 9 8 8 8 9 10 11 11 11 10 10 10 11 11 11 12 12 13 14 15 13 13 14 16 20 23 24 25 25 25 20 12 5 1 1 2 4 5 6 6 7 7 8 9 9 8 8 9 10 13
6 6 6 7 7 7 8 8 9 9 8 8 9 9 9 9 9 9 9 8 9 8 8 8 10 11 11 11 10 9 10 11 11 11 12 13 13 13 13 12 12 13 15 18 21 23 24 23 23 21 14 4 1 0 1 3 4 5 6 6 6 7 8 9 8 8 9 10 10
Wind_Direction
344 343 342 346 350 349 344 339 336 334 331 327 323 320 320 319 319 321 322 324 323 322 320 318 318 319 320 322 323 324 324 323 321 319 318 318 317 316 315 313 309 304 297 290 283 278 274 271 268 266 265 266 268 270 271 271 272 273 273 273 274 275 276 276 275 275 276 276 275
341 341 342 349 351 347 342 337 335 332 329 325 321 319 319 320 322 322 324 325 324 322 320 317 318 319 320 323 324 325 325 323 321 321 320 321 321 321 320 318 316 313 308 299 288 278 269 266 264 263 263 265 266 267 269 270 272 273 274 275 276 276 276 275 275 276 277 278 278
336 337 340 350 349 346 342 337 333 330 327 324 321 320 320 322 323 324 324 324 323 321 320 318 318 320 322 324 326 326 325 323 323 323 323 324 324 325 326 326 327 328 327 323 308 287 268 262 260 260 261 263 264 267 270 273 274 276 278 279 279 278 278 279 281 282 282 282 286
333 333 338 348 347 345 341 336 331 328 326 323 320 320 321 324 325 324 323 323 322 321 320 319 319 321 324 326 327 326 325 325 326 326 327 327 328 330 332 335 341 345 348 349 342 321 284 262 257 257 261 265 268 271 274 277 278 280 281 282 282 282 282 282 285 286 286 287 290
332 333 338 343 344 342 338 334 329 326 323 320 319 321 324 326 326 325 325 325 324 323 321 321 321 324 326 327 327 327 327 328 330 330 330 331 332 334 338 344 353 358 1 4 4 357 333 285 267 263 266 269 272 274 275 278 280 281 281 281 282 283 283 283 285 287 288 289 289
332 334 337 338 340 339 336 331 327 323 320 317 319 322 325 327 326 327 327 326 323 322 322 323 325 327 328 328 328 329 330 332 333 333 333 334 336 339 343 351 360 5 7 10 11 10 1 333 298 280 278 277 276 276 277 278 279 279 281 282 284 286 287 287 288 289 288 288 287
328 331 333 334 337 336 332 329 324 321 318 317 322 325 327 326 325 326 326 325 323 324 326 327 329 330 330 330 330 331 333 334 334 335 336 337 340 342 346 354 3 7 10 13 14 14 10 357 329 303 298 295 292 289 287 285 285 285 287 288 289 288 287 287 287 286 286 286 287
326 328 330 332 333 332 329 326 322 320 320 321 325 326 326 325 327 328 328 327 327 328 329 328 329 330 330 331 332 333 334 335 336 337 338 339 341 344 348 355 4 8 10 14 15 15 13 4 348 325 312 306 302 299 297 295 293 292 291 290 290 289 287 286 284 284 285 286 287
334 332 330 330 331 329 326 323 321 321 321 322 324 326 327 328 330 331 330 329 329 329 329 328 329 331 332 334 335 335 336 337 337 338 338 339 342 345 348 354 4 7 9 12 15 16 15 11 360 341 324 311 307 303 301 300 297 294 292 291 291 290 289 286 285 284 285 286 288
337 334 332 331 331 329 326 324 323 323 323 323 325 326 328 331 332 332 330 329 329 330 330 329 331 332 334 336 337 338 338 338 337 338 338 339 342 345 348 352 3 6 7 9 12 14 16 15 6 355 341 321 314 308 305 303 299 297 296 295 296 296 295 294 291 289 287 286 288
335 335 334 333 332 329 327 326 325 325 325 326 328 329 331 333 333 331 330 330 330 330 331 331 333 334 336 338 338 339 338 339 338 338 339 340 342 345 347 350 359 5 7 8 9 11 14 16 11 7 0 349 334 324 318 315 310 307 306 304 305 305 306 306 304 300 294 290 290
335 336 335 332 330 329 328 328 327 326 327 328 330 331 333 334 333 332 331 332 332 332 332 333 335 336 337 338 339 339 339 339 339 339 339 340 342 344 346 349 354 2 7 8 8 10 12 15 15 14 12 9 3 354 346 341 335 330 327 324 323 323 324 326 325 322 316 309 305
337 337 334 331 330 330 329 329 328 327 328 330 331 333 334 334 333 333 334 334 334 333 333 334 335 337 338 339 339 340 339 339 340 340 340 341 342 343 345 348 350 358 6 7 8 9 11 13 14 15 15 14 12 8 4 360 358 355 352 350 349 348 347 346 346 345 343 341 339
337 335 333 331 331 331 330 330 328 329 330 331 333 333 333 333 335 335 335 335 334 333 333 335 336 337 339 339 340 340 340 340 340 341 342 342 342 343 345 346 348 355 3 4 7 9 11 11 12 13 13 13 12 10 8 7 6 6 5 4 2 0 358 358 357 356 356 357 359
334 332 331 330 331 331 331 331 329 330 331 332 333 333 333 333 335 336 335 335 334 333 334 336 336 336 337 339 341 341 341 341 342 343 343 343 343 343 344 345 346 351 357 359 3 6 9 9 9 10 10 10 9 8 7 7 6 6 6 7 5 2 1 1 0 360 359 0 1
329 329 329 330 330 330 330 330 329 330 331 331 332 332 332 333 334 335 336 335 334 334 334 336 335 335 337 340 342 342 342 343 343 344 344 344 343 342 342 344 345 347 350 354 358 3 6 6 7 8 8 8 6 5 4 4 4 4 4 4 4 2 0 1 0 359 359 0 2
325 326 327 329 328 328 328 328 328 328 329 329 329 330 331 333 333 334 335 336 335 334 334 334 334 335 337 340 342 343 343 343 344 344 344 343 341 340 340 342 343 343 344 348 354 360 3 5 5 6 7 7 5 4 3 3 3 2 2 2 3 2 0 1 0 359 359 2 3
323 325 326 327 327 326 326 326 326 327 327 327 328 329 330 331 331 332 333 335 335 334 333 332 333 334 336 339 341 342 343 342 342 341 341 340 339 339 338 339 341 341 341 341 348 357 3 5 6 6 7 7 6 4 3 4 3 2 1 2 2 2 1 0 0 0 1 3 2
323 325 326 326 325 324 323 324 325 326 326 326 326 327 328 330 330 331 333 334 335 334 333 332 332 334 335 337 339 340 342 341 339 338 338 338 338 337 337 337 339 340 340 334 338 352 4 8 8 8 8 8 6 5 4 4 3 2 1 1 1 1 360 359 360 0 1 2 1
323 325 325 324 322 321 321 322 323 324 324 324 325 326 327 329 330 332 332 333 334 333 333 332 333 334 335 336 337 339 340 339 338 337 337 337 337 337 336 336 336 338 337 329 325 344 6 13 12 11 10 9 7 6 4 3 2 1 0 0 1 0 359 358 359 359 359 359 359
322 323 323 320 319 318 319 320 322 322 322 323 324 326 328 329 330 331 331 331 332 332 333 333 334 334 334 335 336 337 337 336 337 337 337 337 337 336 335 334 334 335 334 324 312 331 9 19 17 15 12 11 9 7 5 3 2 1 1 1 1 360 359 359 358 357 356 356 355
321 321 320 318 316 317 319 322 322 322 323 323 326 327 328 329 330 330 330 330 331 333 334 334 334 334 334 334 335 335 335 334 336 337 338 338 337 336 335 334 334 333 330 319 297 301 18 27 22 19 16 13 9 8 6 5 3 2 1 1 360 360 359 358 357 356 354 353 352
319 319 318 317 317 318 321 322 322 323 324 325 327 329 329 329 329 329 329 330 331 332 333 333 333 333 332 333 334 335 334 334 335 337 339 340 338 337 336 334 334 333 328 314 281 247 65 40 28 22 19 17 12 9 7 6 4 2 0 359 359 359 358 357 355 354 353 351 350
317 318 318 319 320 320 321 322 323 324 325 326 328 329 329 329 329 329 329 330 330 331 331 331 331 331 332 334 336 336 336 336 336 337 338 339 339 338 336 334 335 332 327 315 323 39 68 60 43 30 24 20 17 13 10 7 4 2 360 358 358 357 356 355 354 353 351 350 349
317 318 319 320 321 321 322 323 324 324 325 326 327 329 329 330 329 329 329 328 329 329 329 329 330 332 334 337 338 338 338 337 337 336 336 337 338 338 337 334 335 331 326 326 356 24 48 58 55 46 33 25 21 17 13 10 6 3 1 358 358 356 355 353 353 352 350 348 346
317 319 321 322 322 323 323 324 324 323 324 325 327 329 329 330 329 328 328 327 327 327 328 329 332 334 337 338 338 338 338 338 337 336 335 335 336 336 336 335 335 330 325 328 348 9 34 48 52 53 47 34 27 21 17 13 8 5 2 360 359 356 354 352 351 350 349 347 344
319 321 322 323 324 324 324 323 323 324 324 326 328 328 328 328 328 327 327 327 327 327 328 331 333 336 337 336 336 336 336 336 335 335 334 334 334 335 335 334 334 329 325 328 344 1 23 38 45 49 50 45 34 27 22 16 11 7 4 2 360 357 355 352 350 349 347 346 343
320 322 323 324 325 324 324 323 324 325 326 327 327 326 326 327 327 327 328 328 328 329 330 333 334 335 335 334 334 334 334 333 334 334 334 334 333 334 334 333 332 328 326 329 340 353 11 29 38 43 46 48 41 32 26 21 16 11 8 4 1 357 355 352 350 348 347 344 343
319 321 324 325 324 324 324 325 326 326 326 325 325 325 325 326 327 328 329 330 330 331 332 333 334 333 332 332 331 331 332 333 333 334 334 334 334 333 333 332 330 327 327 330 336 347 1 23 32 37 40 44 43 38 30 25 20 15 11 7 2 358 354 352 350 348 346 344 342
319 322 324 324 323 324 324 325 325 325 324 324 325 325 326 327 329 330 330 330 329 329 330 331 330 330 330 329 330 330 331 332 333 334 335 335 334 333 332 330 328 326 327 329 335 345 358 20 28 32 34 39 42 40 34 29 24 19 15 9 3 359 355 351 349 348 347 344 342
320 322 323 323 323 323 323 323 323 324 324 324 325 326 327 328 329 329 329 328 326 327 328 330 329 328 328 328 329 329 330 329 332 334 335 335 334 332 330 328 327 325 325 330 334 343 354 14 23 26 27 32 36 39 37 34 29 23 17 10 4 360 356 352 350 348 346 344 342
320 322 323 323 322 322 321 322 323 324 325 325 325 326 328 328 328 328 327 325 325 327 329 330 329 328 328 328 328 328 328 329 332 334 335 335 332 330 329 328 327 326 326 330 334 339 347 2 14 20 22 25 27 31 35 37 32 25 18 12 5 1 358 354 350 347 346 344 341
320 322 323 322 321 321 321 322 323 324 325 325 326 327 328 328 328 327 327 326 328 329 330 330 328 326 325 325 325 326 326 328 331 332 332 332 331 330 329 329 327 326 327 330 333 335 340 350 6 16 19 18 16 17 26 36 33 26 18 12 8 3 359 354 350 347 345 342 339
319 321 322 321 320 320 321 322 323 324 325 326 327 329 329 329 329 328 327 327 328 329 328 327 324 322 321 321 321 322 323 326 329 330 330 330 330 331 331 330 326 326 328 330 332 334 337 345 3 17 20 11 2 1 15 33 32 25 18 12 8 4 359 353 349 347 344 341 337
318 320 320 320 319 320 320 321 323 325 326 327 328 330 330 330 328 326 324 324 327 328 327 325 323 321 320 321 320 320 322 324 326 326 327 329 331 332 331 329 326 326 328 330 331 332 334 340 360 18 24 5 347 345 5 30 31 25 17 11 8 4 358 351 348 345 342 339 336
317 319 318 317 318 318 319 321 323 324 326 327 328 329 329 328 326 324 322 324 326 327 327 325 324 324 323 323 322 321 321 322 322 323 325 329 332 332 330 328 326 327 328 329 330 331 332 334 348 6 22 360 329 330 357 27 29 24 16 11 8 4 359 351 346 342 340 336 336
314 314 314 314 315 317 319 320 322 324 325 325 326 327 327 325 324 322 322 326 327 327 326 325 324 324 323 322 319 317 317 318 319 321 324 328 330 330 328 327 327 327 327 328 329 330 330 330 335 346 8 19 304 318 353 25 27 22 16 10 6 3 359 351 346 342 339 335 339
309 309 309 310 312 315 317 319 321 322 322 322 322 323 323 322 322 322 324 328 327 325 323 322 322 321 320 318 315 314 314 315 318 321 323 326 327 327 327 328 327 326 326 326 328 329 329 328 330 342 6 125 270 310 356 25 27 22 15 9 4 1 359 353 348 345 341 337 343
305 304 304 305 309 312 316 318 319 319 318 318 319 319 320 320 321 322 325 327 325 321 319 318 318 317 317 317 316 316 316 316 318 321 323 325 325 326 328 329 327 325 324 325 327 328 329 328 329 342 10 123 223 305 360 25 27 23 15 9 3 360 358 354 349 346 343 341 345
300 300 301 303 307 311 314 316 316 315 315 315 315 316 317 319 320 322 324 324 322 319 316 315 316 316 317 319 318 317 316 316 318 321 323 324 324 326 328 329 326 323 321 322 325 327 328 328 328 340 3 118 185 292 360 26 27 22 15 9 3 359 356 353 350 347 345 343 346
297 300 303 306 308 311 312 313 313 312 312 312 310 311 313 317 319 321 322 321 321 320 318 317 317 317 318 319 318 316 315 315 318 320 322 324 324 325 327 327 324 321 319 320 324 327 328 328 327 335 350 43 111 225 4 31 29 22 14 6 3 360 356 352 350 348 347 345 346